Bedford, MA

9:26 PM EDT on July 22, 2017 (GMT -0400)
Hanscom

Weather History for KBED - August, 2014

Change the Weather History Date:

Thursday, August 28, 2014

  Actual Average Record
Temperature  
Mean Temperature 68 °F -  
Max Temperature 79 °F 80 °F 94 °F (1993)
Min Temperature 59 °F 59 °F 41 °F (1957)
Cooling Degree Days 4    
Growing Degree Days 18 (Base 50)    
Moisture  
Dew Point 56 °F    
Average Humidity 67    
Maximum Humidity 100    
Minimum Humidity 40    
Precipitation  
Precipitation 0.00 in - - ()
Sea Level Pressure  
Sea Level Pressure 29.88 in    
Wind  
Wind Speed 7 mph (NW)    
Max Wind Speed 14 mph    
Max Gust Speed 25 mph    
Visibility 10 miles    
Events      
Averages and records for this station are not official NWS values.
T = Trace of Precipitation, MM = Missing Value Source: NWS Daily Summary

Daily Weather History Graph

Daily Weather History Graph

Search for Another Location

Airport or City:

Trip Planner

Search our weather history database for the weather conditions in past years. The results will help you decide how hot, cold, wet, or windy it might be!

Date:

Astronomy

Aug. 28, 2014 Rise Set
Actual Time 6:05 AM EDT 7:26 PM EDT
Civil Twilight 5:36 AM EDT 7:55 PM EDT
Nautical Twilight 5:01 AM EDT 8:30 PM EDT
Astronomical Twilight 4:24 AM EDT 9:07 PM EDT
Moon 8:59 AM EDT (8/28) 8:43 PM EDT (8/28)
Length of Visible Light 14h 18m
Length of Day
13h 20m
Waxing Crescent, 8% of the Moon is Illuminated
Aug 28
Waxing Crescent
Sep 2
First Quarter
Sep 8
Full
Sep 15
Last Quarter
Sep 24
New

Hourly Weather History & Observations

Time (EDT) Temp. Dew Point Humidity Pressure Visibility Wind Dir Wind Speed Gust Speed Precip Events Conditions
12:56 AM 70.0 °F 70.0 °F 100% 29.86 in 9.0 mi West 6.9 mph - N/A   Mostly Cloudy
1:56 AM 69.1 °F 69.1 °F 100% 29.85 in 10.0 mi WNW 3.5 mph - N/A   Clear
2:56 AM 66.9 °F 64.9 °F 93% 29.84 in 10.0 mi NW 5.8 mph - N/A   Clear
3:56 AM 64.0 °F 63.0 °F 96% 29.83 in 10.0 mi NW 3.5 mph - N/A   Clear
4:56 AM 64.0 °F 63.0 °F 96% 29.84 in 10.0 mi Calm Calm - N/A   Overcast
5:56 AM 63.0 °F 62.1 °F 97% 29.84 in 10.0 mi Calm Calm - N/A   Mostly Cloudy
6:56 AM 64.9 °F 61.0 °F 87% 29.86 in 10.0 mi West 3.5 mph - N/A   Overcast
7:56 AM 68.0 °F 61.0 °F 78% 29.87 in 10.0 mi NW 6.9 mph - N/A   Mostly Cloudy
8:56 AM 72.0 °F 61.0 °F 68% 29.86 in 10.0 mi NW 11.5 mph 18.4 mph N/A   Clear
9:56 AM 73.9 °F 57.0 °F 55% 29.86 in 10.0 mi NNW 10.4 mph 25.3 mph N/A   Clear
10:56 AM 75.0 °F 57.0 °F 53% 29.86 in 10.0 mi NW 10.4 mph 20.7 mph N/A   Partly Cloudy
11:56 AM 77.0 °F 55.0 °F 47% 29.84 in 10.0 mi North 13.8 mph - N/A   Scattered Clouds
12:56 PM 78.1 °F 55.0 °F 45% 29.83 in 10.0 mi NNW 12.7 mph 23.0 mph N/A   Scattered Clouds
1:56 PM 75.9 °F 54.0 °F 46% 29.83 in 10.0 mi NW 13.8 mph - N/A   Mostly Cloudy
2:56 PM 77.0 °F 53.1 °F 43% 29.83 in 10.0 mi NW 12.7 mph - N/A   Mostly Cloudy
3:56 PM 73.9 °F 52.0 °F 46% 29.85 in 10.0 mi NW 11.5 mph - N/A   Overcast
4:56 PM 75.0 °F 50.0 °F 41% 29.86 in 10.0 mi WNW 12.7 mph - N/A   Overcast
5:56 PM 73.9 °F 48.0 °F 40% 29.89 in 10.0 mi NW 10.4 mph 21.9 mph N/A   Scattered Clouds
6:56 PM 68.0 °F 51.1 °F 55% 29.91 in 10.0 mi NW 6.9 mph - N/A   Partly Cloudy
7:56 PM 64.9 °F 50.0 °F 58% 29.95 in 10.0 mi NNW 10.4 mph - N/A   Clear
8:56 PM 64.0 °F 48.9 °F 58% 29.98 in 10.0 mi WNW 8.1 mph - N/A   Clear
9:56 PM 62.1 °F 50.0 °F 65% 30.00 in 10.0 mi West 8.1 mph - N/A   Clear
10:56 PM 59.0 °F 50.0 °F 72% 30.01 in 10.0 mi WNW 9.2 mph - N/A   Clear
11:56 PM 60.1 °F 48.9 °F 67% 30.02 in 10.0 mi NW 8.1 mph - N/A   Clear